| time (UTC) | temp C | wind direction | speed KPH | gust KPH | rain 1hr cm | rain 24hr cm | rain mn cm | humidity % | barometer mb |
| 20260507060632 | 12 | 20 | 3.2 | 8.0 | 0.00 | 0.00 | 0.00 | 81 | 1016.4 |
| 20260507060105 | 12 | 31 | 4.8 | 8.0 | 0.00 | 0.00 | 0.00 | 80 | 1016.4 |
| 20260507055634 | 12 | 39 | 4.8 | 8.0 | 0.00 | 0.00 | 0.00 | 80 | 1016.2 |
| 20260507054601 | 12 | 75 | 4.8 | 8.0 | 0.00 | 0.00 | 0.00 | 79 | 1016.1 |
| 20260507054102 | 12 | 59 | 4.8 | 8.0 | 0.00 | 0.00 | 0.00 | 79 | 1016.1 |
| 20260507053603 | 12 | 76 | 4.8 | 9.7 | 0.00 | 0.00 | 0.00 | 79 | 1016.1 |
| 20260507053101 | 12 | 62 | 3.2 | 11.3 | 0.00 | 0.00 | 0.00 | 79 | 1016.0 |
| 20260507052601 | 12 | 65 | 6.4 | 11.3 | 0.00 | 0.00 | 0.00 | 79 | 1015.9 |
| 20260507052101 | 12 | 63 | 6.4 | 11.3 | 0.00 | 0.00 | 0.00 | 79 | 1015.9 |
| 20260507051604 | 12 | 85 | 8.0 | 17.7 | 0.00 | 0.00 | 0.00 | 79 | 1015.7 |
| 20260507051101 | 12 | 61 | 8.0 | 17.7 | 0.00 | 0.00 | 0.00 | 79 | 1015.6 |
| 20260507050601 | 12 | 68 | 8.0 | 16.1 | 0.00 | 0.00 | 0.00 | 79 | 1015.6 |
| 20260507050100 | 12 | 54 | 8.0 | 16.1 | 0.00 | 0.00 | 0.00 | 79 | 1015.5 |
| 20260507045601 | 12 | 54 | 9.7 | 16.1 | 0.00 | 0.00 | 0.00 | 78 | 1015.4 |
| 20260507045100 | 12 | 68 | 1.6 | 9.7 | 0.00 | 0.00 | 0.00 | 78 | 1015.3 |
| 20260507044601 | 12 | 89 | 3.2 | 11.3 | 0.00 | 0.00 | 0.00 | 78 | 1015.3 |
| 20260507044358 | 12 | 59 | 6.4 | 11.3 | 0.00 | 0.00 | 0.00 | 78 | 1015.2 |
| 20260507043600 | 12 | 68 | 6.4 | 9.7 | 0.00 | 0.00 | 0.00 | 78 | 1015.0 |
| 20260507043100 | 12 | 79 | 6.4 | 9.7 | 0.00 | 0.00 | 0.00 | 78 | 1015.2 |
| 20260507042601 | 12 | 51 | 6.4 | 9.7 | 0.00 | 0.00 | 0.00 | 77 | 1015.1 |
| 20260507042059 | 12 | 52 | 3.2 | 8.0 | 0.00 | 0.00 | 0.00 | 77 | 1015.2 |
| 20260507041559 | 12 | 49 | 4.8 | 8.0 | 0.00 | 0.00 | 0.00 | 77 | 1015.1 |
| 20260507041102 | 12 | 52 | 3.2 | 9.7 | 0.00 | 0.00 | 0.00 | 77 | 1015.1 |
| 20260507040601 | 12 | 37 | 4.8 | 9.7 | 0.00 | 0.00 | 0.00 | 77 | 1015.2 |
| 20260507040059 | 13 | 31 | 6.4 | 9.7 | 0.00 | 0.00 | 0.00 | 77 | 1015.2 |
| 20260507035852 | 13 | 25 | 6.4 | 9.7 | 0.00 | 0.00 | 0.00 | 76 | 1015.0 |
| 20260507035059 | 13 | 34 | 6.4 | 11.3 | 0.00 | 0.00 | 0.00 | 76 | 1015.1 |
| 20260507034559 | 13 | 68 | 6.4 | 11.3 | 0.00 | 0.00 | 0.00 | 76 | 1015.0 |
| 20260507034058 | 13 | 59 | 4.8 | 8.0 | 0.00 | 0.00 | 0.00 | 76 | 1015.1 |
| 20260507033600 | 13 | 66 | 3.2 | 8.0 | 0.00 | 0.00 | 0.00 | 76 | 1015.1 |
| 20260507033356 | 13 | 61 | 6.4 | 8.0 | 0.00 | 0.00 | 0.00 | 76 | 1015.0 |
| 20260507032559 | 13 | 66 | 6.4 | 9.7 | 0.00 | 0.00 | 0.00 | 76 | 1015.0 |
| 20260507032340 | 13 | 66 | 6.4 | 9.7 | 0.00 | 0.00 | 0.00 | 76 | 1015.0 |
| 20260507031600 | 13 | 41 | 4.8 | 9.7 | 0.00 | 0.00 | 0.00 | 76 | 1014.7 |
| 20260507031059 | 13 | 58 | 6.4 | 8.0 | 0.00 | 0.00 | 0.00 | 76 | 1014.8 |
| 20260507030559 | 13 | 65 | 4.8 | 9.7 | 0.00 | 0.00 | 0.00 | 76 | 1014.7 |
| 20260507030358 | 13 | 63 | 6.4 | 9.7 | 0.00 | 0.00 | 0.00 | 75 | 1014.6 |
| 20260507025559 | 13 | 69 | 4.8 | 8.0 | 0.00 | 0.00 | 0.00 | 75 | 1014.5 |
| 20260507025058 | 13 | 69 | 4.8 | 8.0 | 0.00 | 0.00 | 0.00 | 75 | 1014.6 |
| 20260507024925 | 13 | 63 | 3.2 | 8.0 | 0.00 | 0.00 | 0.00 | 74 | 1014.5 |
| 20260507024135 | 13 | 61 | 3.2 | 8.0 | 0.00 | 0.00 | 0.00 | 74 | 1014.4 |
| 20260507023057 | 14 | 56 | 6.4 | 9.7 | 0.00 | 0.00 | 0.00 | 73 | 1014.4 |
| 20260507022557 | 14 | 39 | 6.4 | 9.7 | 0.00 | 0.00 | 0.00 | 72 | 1014.3 |
| 20260507022057 | -17 | 65 | 4.8 | 8.0 | 0.00 | 0.00 | 0.00 | 1014.2 | |
| 20260507021841 | -17 | 75 | 4.8 | 8.0 | 0.00 | 0.00 | 0.00 | 1014.1 | |
| 20260507021059 | 15 | 55 | 3.2 | 9.7 | 0.00 | 0.00 | 0.00 | 70 | 1014.2 |
| 20260507020557 | 15 | 49 | 4.8 | 9.7 | 0.00 | 0.00 | 0.00 | 70 | 1014.2 |
| 20260507020056 | 15 | 73 | 4.8 | 8.0 | 0.00 | 0.00 | 0.00 | 69 | 1014.1 |
| 20260507015558 | 15 | 59 | 6.4 | 6.4 | 0.00 | 0.00 | 0.00 | 68 | 1014.1 |
| 20260507015056 | 15 | 55 | 4.8 | 8.0 | 0.00 | 0.00 | 0.00 | 68 | 1014.0 |
| 20260507014601 | 15 | 55 | 4.8 | 8.0 | 0.00 | 0.00 | 0.00 | 67 | 1013.9 |
| 20260507014055 | 15 | 32 | 4.8 | 11.3 | 0.00 | 0.00 | 0.00 | 67 | 1013.8 |
| 20260507013556 | 15 | 62 | 9.7 | 11.3 | 0.00 | 0.00 | 0.00 | 66 | 1013.7 |
| 20260507013056 | 16 | 49 | 6.4 | 8.0 | 0.00 | 0.00 | 0.00 | 66 | 1013.7 |
| 20260507012555 | 16 | 76 | 6.4 | 11.3 | 0.00 | 0.00 | 0.00 | 65 | 1013.7 |
| 20260507012059 | 16 | 66 | 8.0 | 16.1 | 0.00 | 0.00 | 0.00 | 65 | 1013.7 |
| 20260507011555 | 16 | 76 | 8.0 | 16.1 | 0.00 | 0.00 | 0.00 | 64 | 1013.4 |
| 20260507011055 | 16 | 59 | 8.0 | 11.3 | 0.00 | 0.00 | 0.00 | 64 | 1013.5 |
| 20260507010849 | 16 | 73 | 8.0 | 16.1 | 0.00 | 0.00 | 0.00 | 63 | 1013.5 |
| 20260507010350 | 16 | 41 | 11.3 | 16.1 | 0.00 | 0.00 | 0.00 | 63 | 1013.5 |
| 20260507005554 | 17 | 37 | 11.3 | 19.3 | 0.00 | 0.00 | 0.00 | 62 | 1013.5 |
| 20260507005054 | 17 | 41 | 12.9 | 19.3 | 0.00 | 0.00 | 0.00 | 62 | 1013.5 |
| 20260507004555 | 17 | 41 | 9.7 | 17.7 | 0.00 | 0.00 | 0.00 | 61 | 1013.4 |
| 20260507004119 | -17 | 37 | 12.9 | 17.7 | 0.00 | 0.00 | 0.00 | 1013.4 | |
| 20260507003054 | 17 | 11 | 11.3 | 20.9 | 0.00 | 0.00 | 0.00 | 61 | 1013.4 |
| 20260507002840 | 17 | 54 | 12.9 | 20.9 | 0.00 | 0.00 | 0.00 | 61 | 1013.3 |
| 20260507002053 | 17 | 44 | 14.5 | 22.5 | 0.00 | 0.00 | 0.00 | 60 | 1013.2 |
| 20260507001555 | 17 | 48 | 14.5 | 22.5 | 0.00 | 0.00 | 0.00 | 61 | 1013.2 |
| 20260507001055 | 17 | 52 | 14.5 | 24.1 | 0.00 | 0.00 | 0.00 | 61 | 1012.9 |
| 20260507000553 | 17 | 51 | 14.5 | 25.7 | 0.00 | 0.00 | 0.00 | 61 | 1013.1 |
| 20260507000053 | 17 | 21 | 17.7 | 25.7 | 0.00 | 0.00 | 0.00 | 61 | 1013.1 |
| 20260506235556 | 18 | 38 | 11.3 | 27.4 | 0.00 | 0.00 | 0.00 | 60 | 1012.9 |
| 20260506235054 | 18 | 41 | 17.7 | 27.4 | 0.00 | 0.00 | 0.00 | 59 | 1012.8 |
| 20260506234629 | 18 | 56 | 19.3 | 27.4 | 0.00 | 0.00 | 0.00 | 59 | 1012.9 |
| 20260506233552 | 19 | 20 | 17.7 | 25.7 | 0.00 | 0.00 | 0.00 | 60 | 1012.8 |
| 20260506233053 | 19 | 25 | 14.5 | 20.9 | 0.00 | 0.00 | 0.00 | 57 | 1012.8 |
| 20260506232553 | 19 | 51 | 9.7 | 19.3 | 0.00 | 0.00 | 0.00 | 57 | 1012.7 |
| 20260506232346 | 19 | 4 | 11.3 | 19.3 | 0.00 | 0.00 | 0.00 | 56 | 1012.6 |
| 20260506231553 | 19 | 0 | 12.9 | 22.5 | 0.00 | 0.00 | 0.00 | 56 | 1012.6 |
| 20260506231054 | 19 | 353 | 12.9 | 24.1 | 0.00 | 0.00 | 0.00 | 56 | 1012.5 |
| 20260506230557 | 19 | 0 | 16.1 | 24.1 | 0.00 | 0.00 | 0.00 | 55 | 1012.5 |
| 20260506230347 | 19 | 0 | 14.5 | 20.9 | 0.00 | 0.00 | 0.00 | 55 | 1012.4 |
| 20260506225552 | 19 | 13 | 12.9 | 24.1 | 0.00 | 0.00 | 0.00 | 55 | 1012.4 |
| 20260506225051 | 20 | 341 | 19.3 | 24.1 | 0.00 | 0.00 | 0.00 | 54 | 1012.3 |
| 20260506224552 | 20 | 0 | 14.5 | 22.5 | 0.00 | 0.00 | 0.00 | 54 | 1012.2 |
| 20260506224052 | 20 | 354 | 14.5 | 25.7 | 0.00 | 0.00 | 0.00 | 52 | 1012.1 |
| 20260506223553 | 20 | 330 | 12.9 | 25.7 | 0.00 | 0.00 | 0.00 | 53 | 1012.1 |
| 20260506223051 | 20 | 0 | 14.5 | 20.9 | 0.00 | 0.00 | 0.00 | 53 | 1012.0 |
| 20260506222552 | 20 | 0 | 11.3 | 19.3 | 0.00 | 0.00 | 0.00 | 51 | 1011.9 |
| 20260506222052 | -17 | 28 | 12.9 | 19.3 | 0.00 | 0.00 | 0.00 | 1012.0 | |
| 20260506221836 | 21 | 302 | 9.7 | 20.9 | 0.00 | 0.00 | 0.00 | 51 | 1012.0 |
| 20260506221344 | 21 | 0 | 11.3 | 22.5 | 0.00 | 0.00 | 0.00 | 51 | 1011.8 |
| 20260506220550 | 21 | 351 | 16.1 | 22.5 | 0.00 | 0.00 | 0.00 | 51 | 1011.9 |
| 20260506220051 | 21 | 345 | 11.3 | 22.5 | 0.00 | 0.00 | 0.00 | 52 | 1012.0 |
| 20260506215550 | 21 | 331 | 16.1 | 22.5 | 0.00 | 0.00 | 0.00 | 52 | 1011.9 |
| 20260506215051 | 21 | 341 | 12.9 | 19.3 | 0.00 | 0.00 | 0.00 | 52 | 1011.9 |
| 20260506214551 | 21 | 347 | 12.9 | 24.1 | 0.00 | 0.00 | 0.00 | 50 | 1011.9 |
| 20260506214342 | 21 | 345 | 16.1 | 24.1 | 0.00 | 0.00 | 0.00 | 50 | 1011.8 |
| 20260506213550 | 22 | 0 | 12.9 | 17.7 | 0.00 | 0.00 | 0.00 | 51 | 1011.7 |
| 20260506213050 | 21 | 0 | 9.7 | 16.1 | 0.00 | 0.00 | 0.00 | 51 | 1011.9 |
| 20260506212550 | 21 | 354 | 6.4 | 14.5 | 0.00 | 0.00 | 0.00 | 51 | 1011.9 |
| 20260506212049 | 21 | 13 | 8.0 | 14.5 | 0.00 | 0.00 | 0.00 | 53 | 1011.9 |
| 20260506211550 | 21 | 7 | 4.8 | 14.5 | 0.00 | 0.00 | 0.00 | 50 | 1012.0 |
| 20260506211345 | 21 | 14 | 8.0 | 17.7 | 0.00 | 0.00 | 0.00 | 53 | 1012.0 |
| 20260506210618 | 21 | 32 | 11.3 | 17.7 | 0.00 | 0.00 | 0.00 | 53 | 1012.1 |
| 20260506205839 | 21 | 49 | 3.2 | 16.1 | 0.00 | 0.00 | 0.00 | 52 | 1012.2 |
| 20260506205048 | 21 | 6 | 9.7 | 16.1 | 0.00 | 0.00 | 0.00 | 53 | 1012.2 |
| 20260506204547 | 21 | 1 | 3.2 | 16.1 | 0.00 | 0.00 | 0.00 | 52 | 1012.2 |
| 20260506204048 | 21 | 37 | 8.0 | 16.1 | 0.00 | 0.00 | 0.00 | 53 | 1012.2 |
| 20260506203550 | 21 | 331 | 3.2 | 20.9 | 0.00 | 0.00 | 0.00 | 55 | 1012.2 |
| 20260506203050 | 21 | 58 | 12.9 | 20.9 | 0.00 | 0.00 | 0.00 | 54 | 1012.3 |
| 20260506202841 | 21 | 292 | 3.2 | 16.1 | 0.00 | 0.00 | 0.00 | 56 | 1012.3 |
| 20260506202050 | 21 | 348 | 8.0 | 16.1 | 0.00 | 0.00 | 0.00 | 55 | 1012.5 |
| 20260506201835 | 20 | 14 | 8.0 | 19.3 | 0.00 | 0.00 | 0.00 | 54 | 1012.6 |
| 20260506201048 | 21 | 0 | 9.7 | 19.3 | 0.00 | 0.00 | 0.00 | 56 | 1012.6 |
| 20260506200843 | 20 | 338 | 9.7 | 17.7 | 0.00 | 0.00 | 0.00 | 59 | 1012.6 |
| 20260506200048 | 20 | 0 | 6.4 | 17.7 | 0.00 | 0.00 | 0.00 | 56 | 1012.6 |
| 20260506195844 | 20 | 28 | 8.0 | 20.9 | 0.00 | 0.00 | 0.00 | 56 | 1012.6 |
| 20260506195049 | 20 | 329 | 11.3 | 20.9 | 0.00 | 0.00 | 0.00 | 55 | 1012.6 |
| 20260506194547 | 20 | 350 | 9.7 | 17.7 | 0.00 | 0.00 | 0.00 | 59 | 1012.8 |
| 20260506194047 | 20 | 32 | 9.7 | 11.3 | 0.00 | 0.00 | 0.00 | 61 | 1012.7 |
| 20260506193549 | 19 | 320 | 1.6 | 17.7 | 0.00 | 0.00 | 0.00 | 59 | 1012.7 |
| 20260506193048 | 19 | 0 | 11.3 | 17.7 | 0.00 | 0.00 | 0.00 | 59 | 1012.8 |
| 20260506192548 | 19 | 320 | 9.7 | 17.7 | 0.00 | 0.00 | 0.00 | 59 | 1012.8 |
| 20260506192046 | 19 | 345 | 4.8 | 17.7 | 0.00 | 0.00 | 0.00 | 59 | 1012.9 |
| 20260506191548 | 18 | 355 | 9.7 | 17.7 | 0.00 | 0.00 | 0.00 | 65 | 1013.1 |
| 20260506191046 | 18 | 289 | 3.2 | 14.5 | 0.00 | 0.00 | 0.00 | 65 | 1013.1 |
| 20260506190548 | 18 | 296 | 8.0 | 16.1 | 0.00 | 0.00 | 0.00 | 61 | 1013.3 |
| 20260506190046 | 18 | 341 | 6.4 | 19.3 | 0.00 | 0.00 | 0.00 | 63 | 1013.3 |
| 20260506185545 | 17 | 4 | 8.0 | 19.3 | 0.00 | 0.00 | 0.00 | 63 | 1013.4 |
| 20260506185047 | 17 | 34 | 9.7 | 19.3 | 0.00 | 0.00 | 0.00 | 63 | 1013.5 |
| 20260506184544 | 17 | 8 | 9.7 | 19.3 | 0.00 | 0.00 | 0.00 | 63 | 1013.6 |
| 20260506184045 | 17 | 28 | 8.0 | 19.3 | 0.00 | 0.00 | 0.00 | 63 | 1013.6 |
| 20260506183545 | 17 | 333 | 9.7 | 17.7 | 0.00 | 0.00 | 0.00 | 65 | 1013.6 |
| 20260506183045 | 16 | 0 | 11.3 | 19.3 | 0.00 | 0.00 | 0.00 | 67 | 1013.8 |
| 20260506182546 | 16 | 20 | 9.7 | 19.3 | 0.00 | 0.00 | 0.00 | 67 | 1013.8 |
| 20260506182338 | 16 | 25 | 11.3 | 19.3 | 0.00 | 0.00 | 0.00 | 67 | 1013.8 |
| 20260506181545 | 16 | 30 | 9.7 | 19.3 | 0.00 | 0.00 | 0.00 | 65 | 1014.1 |
| 20260506181046 | 16 | 0 | 9.7 | 22.5 | 0.00 | 0.00 | 0.00 | 66 | 1014.1 |
| 20260506180545 | 16 | 0 | 16.1 | 22.5 | 0.00 | 0.00 | 0.00 | 68 | 1014.1 |
| 20260506180332 | -17 | 17 | 6.4 | 20.9 | 0.00 | 0.00 | 0.00 | 1014.2 | |
| 20260506175544 | 15 | 327 | 12.9 | 20.9 | 0.00 | 0.00 | 0.00 | 70 | 1014.1 |
| 20260506175044 | 15 | 24 | 8.0 | 16.1 | 0.00 | 0.00 | 0.00 | 70 | 1014.2 |
| 20260506174544 | 15 | 3 | 8.0 | 16.1 | 0.00 | 0.00 | 0.00 | 68 | 1014.2 |
| 20260506174120 | 15 | 0 | 11.3 | 16.1 | 0.00 | 0.00 | 0.00 | 68 | 1014.2 |
| 20260506173338 | 15 | 305 | 4.8 | 17.7 | 0.00 | 0.00 | 0.00 | 72 | 1014.4 |
| 20260506172546 | 13 | 47 | 9.7 | 20.9 | 0.00 | 0.00 | 0.00 | 74 | 1014.2 |
| 20260506172045 | 13 | 317 | 11.3 | 20.9 | 0.00 | 0.00 | 0.00 | 74 | 1014.2 |
| 20260506171544 | 13 | 0 | 8.0 | 19.3 | 0.00 | 0.00 | 0.00 | 74 | 1014.1 |
| 20260506171044 | 13 | 31 | 11.3 | 22.5 | 0.00 | 0.00 | 0.00 | 75 | 1014.3 |
| 20260506170544 | 13 | 14 | 16.1 | 24.1 | 0.00 | 0.00 | 0.00 | 75 | 1014.3 |
| 20260506170043 | 12 | 20 | 11.3 | 24.1 | 0.00 | 0.00 | 0.00 | 76 | 1014.2 |
| 20260506165543 | 12 | 21 | 9.7 | 17.7 | 0.00 | 0.00 | 0.00 | 77 | 1014.4 |
| 20260506165044 | 12 | 6 | 8.0 | 19.3 | 0.00 | 0.00 | 0.00 | 77 | 1014.6 |
| 20260506164545 | 12 | 0 | 12.9 | 19.3 | 0.00 | 0.00 | 0.00 | 78 | 1014.5 |
| 20260506164044 | 12 | 0 | 11.3 | 25.7 | 0.00 | 0.00 | 0.00 | 78 | 1014.5 |
| 20260506163544 | 12 | 355 | 12.9 | 25.7 | 0.00 | 0.00 | 0.00 | 78 | 1014.4 |
| 20260506163042 | 11 | 0 | 12.9 | 19.3 | 0.00 | 0.00 | 0.00 | 79 | 1014.4 |
| 20260506162544 | 11 | 0 | 16.1 | 24.1 | 0.00 | 0.00 | 0.00 | 79 | 1014.3 |
| 20260506162043 | 11 | 0 | 16.1 | 24.1 | 0.00 | 0.00 | 0.00 | 80 | 1014.3 |
| 20260506161542 | 11 | 321 | 14.5 | 29.0 | 0.00 | 0.00 | 0.00 | 80 | 1014.1 |
| 20260506161044 | 11 | 355 | 14.5 | 29.0 | 0.00 | 0.00 | 0.00 | 79 | 1014.0 |
| 20260506160830 | 11 | 357 | 16.1 | 25.7 | 0.00 | 0.00 | 0.00 | 80 | 1014.1 |
| 20260506160042 | 11 | 341 | 16.1 | 24.1 | 0.00 | 0.00 | 0.00 | 81 | 1014.0 |
| 20260506155543 | 11 | 28 | 16.1 | 24.1 | 0.00 | 0.00 | 0.00 | 82 | 1014.0 |
| 20260506155042 | 11 | 338 | 16.1 | 22.5 | 0.00 | 0.00 | 0.00 | 83 | 1013.9 |
| 20260506154541 | 11 | 354 | 12.9 | 22.5 | 0.00 | 0.00 | 0.00 | 83 | 1013.8 |
| 20260506154042 | -17 | 0 | 14.5 | 22.5 | 0.00 | 0.00 | 0.00 | 1013.8 | |
| 20260506153541 | 11 | 358 | 12.9 | 22.5 | 0.00 | 0.00 | 0.00 | 83 | 1013.8 |
| 20260506153042 | 11 | 0 | 11.3 | 20.9 | 0.00 | 0.00 | 0.00 | 83 | 1013.7 |
| 20260506152541 | 11 | 0 | 14.5 | 24.1 | 0.00 | 0.00 | 0.00 | 82 | 1013.8 |
| 20260506152042 | 11 | 354 | 17.7 | 24.1 | 0.00 | 0.00 | 0.00 | 83 | 1013.8 |
| 20260506151541 | 10 | 358 | 14.5 | 24.1 | 0.00 | 0.00 | 0.00 | 83 | 1013.9 |
| 20260506151041 | 10 | 344 | 11.3 | 25.7 | 0.00 | 0.00 | 0.00 | 82 | 1013.8 |
| 20260506150543 | 10 | 0 | 14.5 | 25.7 | 0.00 | 0.00 | 0.00 | 82 | 1013.7 |
| 20260506150040 | 10 | 20 | 14.5 | 29.0 | 0.00 | 0.00 | 0.00 | 82 | 1013.6 |
| 20260506145540 | 10 | 353 | 20.9 | 33.8 | 0.00 | 0.00 | 0.00 | 82 | 1013.5 |
| 20260506145040 | 10 | 0 | 19.3 | 33.8 | 0.00 | 0.00 | 0.00 | 83 | 1013.5 |
| 20260506144541 | 10 | 347 | 16.1 | 25.7 | 0.00 | 0.00 | 0.00 | 83 | 1013.5 |
| 20260506144039 | 10 | 25 | 19.3 | 25.7 | 0.00 | 0.00 | 0.00 | 83 | 1013.6 |
| 20260506143540 | 10 | 0 | 17.7 | 22.5 | 0.00 | 0.00 | 0.00 | 83 | 1013.6 |
| 20260506143040 | 10 | 17 | 14.5 | 22.5 | 0.00 | 0.00 | 0.00 | 84 | 1013.8 |
| 20260506142541 | 10 | 351 | 14.5 | 22.5 | 0.00 | 0.00 | 0.00 | 84 | 1013.7 |
| 20260506142040 | 10 | 0 | 8.0 | 22.5 | 0.00 | 0.00 | 0.00 | 84 | 1013.8 |
| 20260506141540 | 10 | 23 | 14.5 | 24.1 | 0.00 | 0.00 | 0.00 | 84 | 1013.8 |
| 20260506141039 | 10 | 27 | 14.5 | 24.1 | 0.00 | 0.00 | 0.00 | 84 | 1013.8 |
| 20260506140833 | 10 | 13 | 9.7 | 20.9 | 0.00 | 0.00 | 0.00 | 83 | 1013.7 |
| 20260506140038 | 10 | 45 | 14.5 | 22.5 | 0.00 | 0.00 | 0.00 | 83 | 1013.5 |
| 20260506135538 | 10 | 355 | 14.5 | 22.5 | 0.00 | 0.00 | 0.00 | 84 | 1013.8 |
| 20260506135329 | 10 | 25 | 9.7 | 16.1 | 0.00 | 0.00 | 0.00 | 84 | 1014.1 |
| 20260506134538 | 10 | 11 | 6.4 | 14.5 | 0.00 | 0.00 | 0.00 | 84 | 1014.3 |
| 20260506134038 | 10 | 7 | 6.4 | 16.1 | 0.00 | 0.00 | 0.00 | 84 | 1014.0 |
| 20260506133538 | 10 | 6 | 9.7 | 16.1 | 0.00 | 0.00 | 0.00 | 84 | 1014.0 |
| 20260506133331 | 10 | 0 | 9.7 | 17.7 | 0.00 | 0.00 | 0.00 | 84 | 1013.8 |
| 20260506132538 | 10 | 0 | 9.7 | 19.3 | 0.00 | 0.00 | 0.00 | 84 | 1013.7 |
| 20260506132332 | 10 | 0 | 11.3 | 19.3 | 0.00 | 0.00 | 0.00 | 84 | 1013.5 |
| 20260506131537 | 10 | 0 | 11.3 | 19.3 | 0.00 | 0.00 | 0.00 | 84 | 1013.5 |
| 20260506131039 | -17 | 23 | 11.3 | 19.3 | 0.00 | 0.00 | 0.00 | 1013.4 | |
| 20260506130540 | 10 | 31 | 9.7 | 19.3 | 0.00 | 0.00 | 0.00 | 84 | 1013.6 |
| 20260506130037 | 10 | 39 | 8.0 | 19.3 | 0.00 | 0.00 | 0.00 | 84 | 1013.8 |
| 20260506125538 | 10 | 11 | 9.7 | 16.1 | 0.00 | 0.00 | 0.00 | 84 | 1013.1 |
| 20260506125037 | 10 | 8 | 9.7 | 17.7 | 0.00 | 0.00 | 0.00 | 84 | 1012.8 |
| 20260506124537 | 10 | 355 | 11.3 | 19.3 | 0.00 | 0.00 | 0.00 | 84 | 1013.1 |
| 20260506124333 | 10 | 20 | 12.9 | 19.3 | 0.00 | 0.00 | 0.00 | 84 | 1012.9 |
| 20260506123537 | 10 | 23 | 8.0 | 19.3 | 0.00 | 0.00 | 0.00 | 84 | 1013.2 |
| 20260506123036 | 10 | 30 | 11.3 | 19.3 | 0.00 | 0.00 | 0.00 | 84 | 1013.2 |
| 20260506122537 | 10 | 21 | 9.7 | 14.5 | 0.00 | 0.00 | 0.00 | 84 | 1012.9 |
| 20260506122036 | 10 | 10 | 8.0 | 19.3 | 0.00 | 0.00 | 0.00 | 84 | 1012.7 |
| 20260506121536 | 10 | 23 | 9.7 | 19.3 | 0.00 | 0.00 | 0.00 | 83 | 1012.7 |
| 20260506121037 | 10 | 23 | 14.5 | 19.3 | 0.00 | 0.00 | 0.00 | 83 | 1012.4 |
| 20260506120537 | 10 | 30 | 8.0 | 19.3 | 0.00 | 0.00 | 0.00 | 83 | 1012.3 |
| 20260506120035 | 10 | 28 | 8.0 | 19.3 | 0.00 | 0.00 | 0.00 | 83 | 1012.0 |
| 20260506115536 | 10 | 14 | 8.0 | 20.9 | 0.00 | 0.00 | 0.00 | 83 | 1012.0 |
| 20260506115334 | 10 | 0 | 11.3 | 20.9 | 0.00 | 0.00 | 0.00 | 84 | 1011.6 |
| 20260506114537 | 10 | 20 | 9.7 | 22.5 | 0.00 | 0.00 | 0.00 | 84 | 1011.4 |
| 20260506114035 | 10 | 20 | 11.3 | 22.5 | 0.00 | 0.00 | 0.00 | 84 | 1011.0 |
| 20260506113535 | 10 | 42 | 11.3 | 20.9 | 0.00 | 0.00 | 0.00 | 84 | 1011.3 |
| 20260506113035 | 10 | 0 | 11.3 | 20.9 | 0.00 | 0.00 | 0.00 | 85 | 1011.2 |
| 20260506112535 | 10 | 13 | 11.3 | 19.3 | 0.00 | 0.00 | 0.00 | 85 | 1011.4 |
| 20260506112035 | 10 | 35 | 11.3 | 19.3 | 0.00 | 0.00 | 0.00 | 85 | 1011.5 |
| 20260506111535 | 10 | 27 | 8.0 | 16.1 | 0.00 | 0.00 | 0.00 | 85 | 1011.5 |
| 20260506111328 | 10 | 30 | 6.4 | 17.7 | 0.00 | 0.00 | 0.00 | 85 | 1011.4 |
| 20260506110536 | 10 | 11 | 9.7 | 17.7 | 0.00 | 0.00 | 0.00 | 85 | 1011.3 |
| 20260506110034 | 10 | 3 | 9.7 | 17.7 | 0.00 | 0.00 | 0.00 | 85 | 1011.2 |
| 20260506105534 | 10 | 21 | 9.7 | 14.5 | 0.00 | 0.00 | 0.00 | 85 | 1011.0 |
| 20260506105034 | 10 | 30 | 8.0 | 14.5 | 0.00 | 0.00 | 0.00 | 85 | 1011.2 |
| 20260506104534 | 10 | 28 | 8.0 | 17.7 | 0.00 | 0.00 | 0.00 | 85 | 1011.3 |
| 20260506104034 | 10 | 28 | 9.7 | 17.7 | 0.00 | 0.00 | 0.00 | 86 | 1011.2 |
| 20260506103534 | 10 | 358 | 9.7 | 16.1 | 0.00 | 0.00 | 0.00 | 86 | 1011.2 |
| 20260506103034 | 10 | 35 | 8.0 | 14.5 | 0.00 | 0.00 | 0.00 | 86 | 1011.0 |
| 20260506102533 | 10 | 16 | 9.7 | 14.5 | 0.00 | 0.00 | 0.00 | 87 | 1010.9 |
| 20260506102034 | 10 | 345 | 8.0 | 16.1 | 0.00 | 0.00 | 0.00 | 87 | 1011.0 |
| 20260506101533 | 10 | 10 | 6.4 | 17.7 | 0.00 | 0.00 | 0.00 | 87 | 1011.2 |
| 20260506101033 | 10 | 31 | 6.4 | 17.7 | 0.00 | 0.00 | 0.00 | 87 | 1011.2 |
| 20260506100533 | 10 | 340 | 4.8 | 8.0 | 0.00 | 0.00 | 0.00 | 87 | 1010.9 |
| 20260506100032 | 10 | 0 | 3.2 | 8.0 | 0.00 | 0.00 | 0.00 | 87 | 1010.8 |
| 20260506095533 | 10 | 0 | 4.8 | 9.7 | 0.00 | 0.00 | 0.00 | 87 | 1010.8 |
| 20260506095032 | 10 | 0 | 6.4 | 9.7 | 0.00 | 0.00 | 0.00 | 87 | 1010.4 |
| 20260506094824 | 10 | 0 | 4.8 | 11.3 | 0.00 | 0.00 | 0.00 | 86 | 1010.2 |
| 20260506094032 | 10 | 353 | 8.0 | 11.3 | 0.00 | 0.00 | 0.00 | 86 | 1010.1 |
| 20260506093532 | 10 | 20 | 6.4 | 11.3 | 0.00 | 0.00 | 0.00 | 86 | 1010.1 |
| 20260506093032 | 10 | 6 | 4.8 | 11.3 | 0.00 | 0.00 | 0.00 | 86 | 1010.1 |
| 20260506092532 | 10 | 358 | 6.4 | 9.7 | 0.00 | 0.00 | 0.00 | 86 | 1010.2 |
| 20260506092033 | 10 | 353 | 6.4 | 8.0 | 0.00 | 0.00 | 0.00 | 86 | 1010.2 |
| 20260506091532 | 10 | 343 | 4.8 | 9.7 | 0.00 | 0.00 | 0.00 | 86 | 1010.3 |
| 20260506091033 | 11 | 0 | 4.8 | 9.7 | 0.00 | 0.00 | 0.00 | 86 | 1010.2 |
| 20260506090531 | 11 | 0 | 3.2 | 8.0 | 0.00 | 0.00 | 0.00 | 85 | 1010.2 |
| 20260506090031 | 11 | 0 | 3.2 | 9.7 | 0.00 | 0.00 | 0.00 | 85 | 1010.2 |
| 20260506085824 | 11 | 351 | 6.4 | 9.7 | 0.00 | 0.00 | 0.00 | 85 | 1010.2 |
| 20260506085325 | 11 | 358 | 6.4 | 9.7 | 0.00 | 0.00 | 0.00 | 85 | 1010.3 |
| 20260506084531 | 11 | 0 | 3.2 | 6.4 | 0.00 | 0.00 | 0.00 | 85 | 1010.0 |
| 20260506084033 | 11 | 21 | 1.6 | 8.0 | 0.00 | 0.00 | 0.00 | 85 | 1010.1 |
| 20260506083814 | 11 | 21 | 1.6 | 9.7 | 0.00 | 0.00 | 0.00 | 85 | 1009.9 |
| 20260506083031 | 11 | 49 | 4.8 | 11.3 | 0.00 | 0.00 | 0.00 | 85 | 1010.0 |
| 20260506082532 | 11 | 0 | 8.0 | 11.3 | 0.00 | 0.00 | 0.00 | 85 | 1009.9 |
| 20260506082034 | 11 | 347 | 4.8 | 8.0 | 0.00 | 0.00 | 0.00 | 85 | 1009.9 |
| 20260506081530 | -17 | 23 | 4.8 | 14.5 | 0.00 | 0.00 | 0.00 | 1010.1 | |
| 20260506081031 | -17 | 355 | 6.4 | 14.5 | 0.00 | 0.00 | 0.00 | 1010.0 | |
| 20260506080531 | 11 | 348 | 8.0 | 14.5 | 0.00 | 0.00 | 0.00 | 84 | 1010.1 |
| 20260506073528 | 11 | 13 | 3.2 | 9.7 | 0.00 | 0.00 | 0.00 | 84 | 1010.1 |
| 20260506073027 | 11 | 0 | 3.2 | 9.7 | 0.00 | 0.00 | 0.00 | 84 | 1010.1 |
| 20260506072528 | 12 | 35 | 3.2 | 6.4 | 0.00 | 0.00 | 0.00 | 83 | 1009.9 |
| 20260506072028 | 12 | 10 | 4.8 | 14.5 | 0.00 | 0.00 | 0.00 | 83 | 1010.1 |
| 20260506071528 | 12 | 10 | 4.8 | 14.5 | 0.00 | 0.00 | 0.00 | 83 | 1010.1 |
| 20260506071028 | 12 | 7 | 6.4 | 8.0 | 0.00 | 0.00 | 0.00 | 83 | 1010.1 |
| 20260506070528 | 12 | 27 | 3.2 | 8.0 | 0.00 | 0.00 | 0.00 | 83 | 1010.0 |
| 20260506062026 | 13 | 23 | 8.0 | 16.1 | 0.00 | 0.00 | 0.00 | 80 | 1009.9 |
| 20260506061527 | 13 | 38 | 11.3 | 16.1 | 0.00 | 0.00 | 0.00 | 79 | 1009.9 |
| 20260506061028 | 13 | 21 | 8.0 | 16.1 | 0.00 | 0.00 | 0.00 | 79 | 1009.8 |